• In Hungary
  • List of Countries
  • For 7 days
  • Water Temperature
  • Satellite Maps
  • Weather Map
  • News
  • Weather Widgets
  • user-avatar
    Login

    Hourly Weather Shusha

    Today, 23 June, Saturday

    Time Temperature Precipitation Wind Pressure Humidity
    00:00 +17°C° 0 mm 2 mps 658 mmHg 52%
    01:00 +17°C° 0 mm 2 mps 658 mmHg 51%
    02:00 +16°C° 0 mm 2 mps 658 mmHg 50%
    03:00 +16°C° 0 mm 2 mps 658 mmHg 49%
    04:00 +17°C° 0 mm 2 mps 658 mmHg 47%
    05:00 +18°C° 0 mm 2 mps 658 mmHg 45%
    06:00 +18°C° 0 mm 2 mps 659 mmHg 44%
    07:00 +20°C° 0 mm 2 mps 659 mmHg 39%
    08:00 +23°C° 0 mm 2 mps 659 mmHg 33%
    09:00 +25°C° 0 mm 2 mps 660 mmHg 28%
    10:00 +26°C° 0 mm 2 mps 660 mmHg 27%
    11:00 +27°C° 0 mm 3 mps 660 mmHg 27%
    12:00 +28°C° 0 mm 3 mps 660 mmHg 26%
    13:00 +28°C° 0 mm 3 mps 659 mmHg 26%
    14:00 +28°C° 0 mm 3 mps 659 mmHg 26%
    15:00 +29°C° 0 mm 3 mps 659 mmHg 26%
    16:00 +28°C° 0 mm 3 mps 659 mmHg 28%
    17:00 +27°C° 0 mm 3 mps 659 mmHg 31%
    18:00 +26°C° 0 mm 2 mps 658 mmHg 33%
    19:00 +24°C° 0 mm 2 mps 658 mmHg 37%
    20:00 +21°C° 0 mm 2 mps 658 mmHg 40%
    21:00 +19°C° 0 mm 2 mps 658 mmHg 44%
    22:00 +19°C° 0 mm 2 mps 658 mmHg 44%
    23:00 +18°C° 0 mm 2 mps 658 mmHg 44%

    Tomorrow, 24 June, Sunday

    Time Temperature Precipitation Wind Pressure Humidity
    00:00 +18°C° 0 mm 2 mps 658 mmHg 44%
    01:00 +18°C° 0 mm 2 mps 658 mmHg 45%
    02:00 +17°C° 0 mm 2 mps 658 mmHg 45%
    03:00 +17°C° 0 mm 2 mps 658 mmHg 45%
    04:00 +18°C° 0 mm 2 mps 659 mmHg 46%
    05:00 +19°C° 0 mm 2 mps 659 mmHg 46%
    06:00 +19°C° 0 mm 2 mps 659 mmHg 46%
    07:00 +21°C° 0 mm 2 mps 660 mmHg 42%
    08:00 +24°C° 0 mm 2 mps 660 mmHg 39%
    09:00 +25°C° 0 mm 2 mps 660 mmHg 35%
    10:00 +27°C° 0 mm 2 mps 660 mmHg 33%
    11:00 +28°C° 0 mm 3 mps 660 mmHg 32%
    12:00 +29°C° 0 mm 3 mps 660 mmHg 31%
    13:00 +29°C° 0 mm 3 mps 660 mmHg 31%
    14:00 +29°C° 0 mm 3 mps 660 mmHg 31%
    15:00 +30°C° 0 mm 3 mps 660 mmHg 30%
    16:00 +29°C° 0 mm 3 mps 660 mmHg 33%
    17:00 +28°C° 0 mm 3 mps 660 mmHg 35%
    18:00 +28°C° 0 mm 3 mps 659 mmHg 37%
    19:00 +26°C° 0 mm 2 mps 659 mmHg 41%
    20:00 +24°C° 0 mm 2 mps 659 mmHg 45%
    21:00 +21°C° 0 mm 2 mps 659 mmHg 49%
    22:00 +20°C° 0 mm 2 mps 659 mmHg 50%
    23:00 +19°C° 0 mm 2 mps 659 mmHg 50%

    Day after tomorrow, 25 June, Monday

    Time Temperature Precipitation Wind Pressure Humidity
    00:00 +19°C° 0 mm 2 mps 659 mmHg 51%
    01:00 +19°C° 0 mm 2 mps 659 mmHg 51%
    02:00 +18°C° 0 mm 2 mps 659 mmHg 51%
    03:00 +18°C° 0 mm 2 mps 659 mmHg 51%
    04:00 +19°C° 0 mm 2 mps 660 mmHg 49%
    05:00 +19°C° 0 mm 2 mps 660 mmHg 47%
    06:00 +20°C° 0 mm 2 mps 660 mmHg 46%
    07:00 +23°C° 0 mm 2 mps 661 mmHg 41%
    08:00 +25°C° 0 mm 2 mps 661 mmHg 36%
    09:00 +26°C° 0 mm 2 mps 662 mmHg 31%
    10:00 +27°C° 0 mm 2 mps 662 mmHg 30%
    11:00 +28°C° 0 mm 3 mps 662 mmHg 28%
    12:00 +29°C° 0 mm 3 mps 662 mmHg 27%
    13:00 +30°C° 0 mm 3 mps 661 mmHg 27%
    14:00 +30°C° 0 mm 3 mps 661 mmHg 28%
    15:00 +30°C° 0 mm 3 mps 661 mmHg 28%
    16:00 +30°C° 0 mm 3 mps 661 mmHg 31%
    17:00 +29°C° 0 mm 3 mps 661 mmHg 33%
    18:00 +28°C° 0 mm 3 mps 660 mmHg 35%
    19:00 +26°C° 0 mm 2 mps 660 mmHg 39%
    20:00 +24°C° 0 mm 2 mps 660 mmHg 43%
    21:00 +21°C° 0 mm 2 mps 660 mmHg 47%
    22:00 +21°C° 0 mm 2 mps 660 mmHg 48%
    23:00 +20°C° 0 mm 2 mps 660 mmHg 48%

    26 June, Tuesday

    Time Temperature Precipitation Wind Pressure Humidity
    00:00 +20°C° 0 mm 2 mps 660 mmHg 49%
    01:00 +19°C° 0 mm 2 mps 660 mmHg 48%
    02:00 +19°C° 0 mm 2 mps 660 mmHg 48%
    03:00 +19°C° 0 mm 2 mps 660 mmHg 47%
    04:00 +19°C° 0 mm 2 mps 660 mmHg 46%
    05:00 +20°C° 0 mm 2 mps 660 mmHg 44%
    06:00 +21°C° 0 mm 2 mps 660 mmHg 43%
    07:00 +24°C° 0 mm 2 mps 661 mmHg 38%
    08:00 +26°C° 0 mm 2 mps 661 mmHg 33%
    09:00 +28°C° 0 mm 2 mps 662 mmHg 29%
    10:00 +29°C° 0 mm 2 mps 661 mmHg 28%
    11:00 +30°C° 0 mm 2 mps 661 mmHg 27%
    12:00 +31°C° 0 mm 3 mps 661 mmHg 26%
    13:00 +31°C° 0 mm 3 mps 661 mmHg 26%
    14:00 +31°C° 0 mm 3 mps 661 mmHg 26%
    15:00 +33°C° 0 mm 3 mps 660 mmHg 26%
    16:00 +31°C° 0 mm 3 mps 660 mmHg 29%
    17:00 +30°C° 0 mm 2 mps 660 mmHg 31%
    18:00 +30°C° 0 mm 2 mps 660 mmHg 33%
    19:00 +27°C° 0 mm 2 mps 660 mmHg 38%
    20:00 +25°C° 0 mm 2 mps 660 mmHg 42%
    21:00 +23°C° 0 mm 2 mps 660 mmHg 46%
    22:00 +23°C° 0 mm 2 mps 659 mmHg 46%
    23:00 +21°C° 0 mm 2 mps 659 mmHg 47%

    27 June, Wednesday

    Time Temperature Precipitation Wind Pressure Humidity
    00:00 +21°C° 0 mm 2 mps 659 mmHg 47%
    01:00 +20°C° 0 mm 2 mps 659 mmHg 47%
    02:00 +20°C° 0 mm 2 mps 659 mmHg 47%
    03:00 +20°C° 0 mm 2 mps 659 mmHg 47%
    04:00 +20°C° 0 mm 2 mps 659 mmHg 46%
    05:00 +21°C° 0 mm 2 mps 659 mmHg 46%
    06:00 +23°C° 0 mm 2 mps 659 mmHg 45%
    07:00 +25°C° 0 mm 2 mps 660 mmHg 40%
    08:00 +27°C° 0 mm 2 mps 660 mmHg 35%
    09:00 +29°C° 0 mm 2 mps 660 mmHg 30%
    10:00 +30°C° 0 mm 2 mps 660 mmHg 29%
    11:00 +31°C° 0 mm 3 mps 660 mmHg 27%
    12:00 +33°C° 0 mm 3 mps 660 mmHg 25%
    13:00 +34°C° 0 mm 3 mps 660 mmHg 25%
    14:00 +34°C° 0 mm 3 mps 660 mmHg 25%
    15:00 +34°C° 0 mm 3 mps 659 mmHg 25%
    16:00 +34°C° 0 mm 2 mps 659 mmHg 27%
    17:00 +32°C° 0 mm 2 mps 659 mmHg 29%
    18:00 +31°C° 0 mm 2 mps 659 mmHg 31%
    19:00 +29°C° 0 mm 2 mps 659 mmHg 35%
    20:00 +27°C° 0 mm 2 mps 658 mmHg 39%
    21:00 +24°C° 0 mm 2 mps 658 mmHg 43%
    22:00 +24°C° 0 mm 2 mps 658 mmHg 44%
    23:00 +23°C° 0 mm 2 mps 658 mmHg 44%

    28 June, Thursday

    Time Temperature Precipitation Wind Pressure Humidity
    00:00 +23°C° 0 mm 2 mps 658 mmHg 45%
    01:00 +23°C° 0 mm 2 mps 658 mmHg 45%
    02:00 +21°C° 0 mm 2 mps 658 mmHg 44%
    03:00 +21°C° 0 mm 2 mps 658 mmHg 44%
    04:00 +23°C° 0 mm 2 mps 658 mmHg 44%
    05:00 +23°C° 0 mm 2 mps 658 mmHg 44%
    06:00 +24°C° 0 mm 2 mps 659 mmHg 44%
    07:00 +26°C° 0 mm 2 mps 659 mmHg 40%
    08:00 +28°C° 0 mm 2 mps 659 mmHg 35%
    09:00 +30°C° 0 mm 2 mps 660 mmHg 31%
    10:00 +31°C° 0 mm 3 mps 660 mmHg 29%
    11:00 +33°C° 0 mm 3 mps 659 mmHg 27%
    12:00 +34°C° 0 mm 3 mps 659 mmHg 25%
    13:00 +34°C° 0 mm 3 mps 659 mmHg 25%
    14:00 +34°C° 0 mm 3 mps 659 mmHg 25%
    15:00 +35°C° 0 mm 3 mps 659 mmHg 24%
    16:00 +34°C° 0 mm 3 mps 659 mmHg 26%
    17:00 +32°C° 0 mm 2 mps 658 mmHg 29%
    18:00 +31°C° 0 mm 2 mps 658 mmHg 31%
    19:00 +29°C° 0 mm 2 mps 658 mmHg 34%
    20:00 +27°C° 0 mm 2 mps 658 mmHg 37%
    21:00 +25°C° 0 mm 2 mps 658 mmHg 40%
    22:00 +24°C° 0 mm 2 mps 658 mmHg 41%
    23:00 +23°C° 0 mm 2 mps 658 mmHg 42%
    Show more